Time,TemperatureF,DewpointF,PressureIn,WindDirection,WindDirectionDegrees,WindSpeedMPH,WindSpeedGustMPH,Humidity,HourlyPrecipIn,Conditions,Clouds,dailyrainin,SoftwareType,DateUTC
2013-01-24 00:01:00,10.4,-99.9,30.06,SW,224,0.0,0.0,-999,0.00,,,-99.99,perl,2013-01-24 05:01:00,
2013-01-24 00:04:00,10.4,-99.9,30.06,SW,223,0.0,0.0,-999,0.00,,,-99.99,perl,2013-01-24 05:04:00,
2013-01-24 00:06:00,10.6,-99.9,30.06,SW,224,0.0,0.0,-999,0.00,,,-99.99,perl,2013-01-24 05:06:00,
2013-01-24 00:10:00,10.6,-99.9,30.06,SW,224,0.0,0.0,-999,0.00,,,-99.99,perl,2013-01-24 05:10:00,
2013-01-24 00:15:00,10.8,-99.9,30.06,SW,223,0.0,0.0,-999,0.00,,,-99.99,perl,2013-01-24 05:15:00,
2013-01-24 00:20:00,10.9,-99.9,30.06,SW,223,0.0,0.0,-999,0.00,,,-99.99,perl,2013-01-24 05:20:00,
2013-01-24 00:25:00,10.9,-99.9,30.06,SW,224,0.0,0.0,-999,0.00,,,-99.99,perl,2013-01-24 05:25:00,
2013-01-24 00:30:00,11.1,-99.9,30.06,SW,224,0.0,0.0,-999,0.00,,,-99.99,perl,2013-01-24 05:30:00,
2013-01-24 00:36:00,11.1,-99.9,30.06,SW,224,0.0,0.0,-999,0.00,,,-99.99,perl,2013-01-24 05:36:00,
2013-01-24 00:41:00,11.1,-99.9,30.06,SW,223,0.0,0.0,-999,0.00,,,-99.99,perl,2013-01-24 05:41:00,
2013-01-24 00:46:00,11.1,-99.9,30.06,SW,225,0.0,0.0,-999,0.00,,,-99.99,perl,2013-01-24 05:46:00,
2013-01-24 00:51:00,11.3,-99.9,30.06,SW,223,0.0,0.0,-999,0.00,,,-99.99,perl,2013-01-24 05:51:00,
2013-01-24 00:56:00,11.3,-99.9,30.06,SW,225,0.0,0.0,-999,0.00,,,-99.99,perl,2013-01-24 05:56:00,
2013-01-24 01:01:00,11.5,-99.9,30.06,SW,221,0.0,0.0,-999,0.00,,,-99.99,perl,2013-01-24 06:01:00,
2013-01-24 01:06:00,11.5,-99.9,30.06,SW,221,0.0,0.0,-999,0.00,,,-99.99,perl,2013-01-24 06:06:00,
2013-01-24 01:11:00,11.7,-99.9,30.06,SW,220,0.0,0.0,-999,0.00,,,-99.99,perl,2013-01-24 06:11:00,
2013-01-24 01:16:00,11.7,-99.9,30.06,SW,220,0.0,0.0,-999,0.00,,,-99.99,perl,2013-01-24 06:16:00,
2013-01-24 01:21:00,11.7,-99.9,30.06,SW,220,0.0,0.0,-999,0.00,,,-99.99,perl,2013-01-24 06:21:00,
2013-01-24 01:26:00,11.7,-99.9,30.06,SW,219,0.0,0.0,-999,0.00,,,-99.99,perl,2013-01-24 06:26:00,
2013-01-24 01:31:00,11.7,-99.9,30.06,SW,220,0.0,0.0,-999,0.00,,,-99.99,perl,2013-01-24 06:31:00,
2013-01-24 01:36:00,11.7,-99.9,30.06,SW,220,0.0,0.0,-999,0.00,,,-99.99,perl,2013-01-24 06:36:00,
2013-01-24 01:41:00,11.7,-99.9,30.06,SW,220,0.0,0.0,-999,0.00,,,-99.99,perl,2013-01-24 06:41:00,
2013-01-24 01:46:00,11.5,-99.9,30.06,SW,220,0.0,0.0,-999,0.00,,,-99.99,perl,2013-01-24 06:46:00,
2013-01-24 01:51:00,11.5,-99.9,30.06,SW,219,0.0,0.0,-999,0.00,,,-99.99,perl,2013-01-24 06:51:00,
2013-01-24 01:56:00,11.5,-99.9,30.06,SW,220,0.0,0.0,-999,0.00,,,-99.99,perl,2013-01-24 06:56:00,
2013-01-24 02:02:00,11.5,-99.9,30.06,SW,221,0.0,0.0,-999,0.00,,,-99.99,perl,2013-01-24 07:02:00,
2013-01-24 02:07:00,11.7,-99.9,30.06,SW,221,0.0,0.0,-999,0.00,,,-99.99,perl,2013-01-24 07:07:00,
2013-01-24 02:12:00,11.7,-99.9,30.06,SW,220,0.0,0.0,-999,0.00,,,-99.99,perl,2013-01-24 07:12:00,
2013-01-24 02:17:00,11.7,-99.9,30.06,SW,219,0.0,0.0,-999,0.00,,,-99.99,perl,2013-01-24 07:17:00,
2013-01-24 02:22:00,11.7,-99.9,30.06,SW,220,0.0,0.0,-999,0.00,,,-99.99,perl,2013-01-24 07:22:00,
2013-01-24 02:27:00,11.7,-99.9,30.06,SW,219,0.0,0.0,-999,0.00,,,-99.99,perl,2013-01-24 07:27:00,
2013-01-24 02:32:00,11.7,-99.9,30.08,SW,222,0.0,0.0,-999,0.00,,,-99.99,perl,2013-01-24 07:32:00,
2013-01-24 02:37:00,11.7,-99.9,30.08,SW,220,0.0,0.0,-999,0.00,,,-99.99,perl,2013-01-24 07:37:00,
2013-01-24 02:42:00,11.7,-99.9,30.08,SW,220,0.0,0.0,-999,0.00,,,-99.99,perl,2013-01-24 07:42:00,
2013-01-24 02:47:00,11.7,-99.9,30.08,SW,220,0.0,0.0,-999,0.00,,,-99.99,perl,2013-01-24 07:47:00,
2013-01-24 02:52:00,11.7,-99.9,30.08,SW,220,0.0,0.0,-999,0.00,,,-99.99,perl,2013-01-24 07:52:00,
2013-01-24 02:58:00,11.7,-99.9,30.08,SW,220,0.0,0.0,-999,0.00,,,-99.99,perl,2013-01-24 07:58:00,
2013-01-24 03:03:00,11.7,-99.9,30.08,SW,219,0.0,0.0,-999,0.00,,,-99.99,perl,2013-01-24 08:03:00,
2013-01-24 03:08:00,11.7,-99.9,30.08,SW,217,0.0,0.0,-999,0.00,,,-99.99,perl,2013-01-24 08:08:00,
2013-01-24 03:13:00,11.7,-99.9,30.08,ESE,110,0.0,0.0,-999,0.00,,,-99.99,perl,2013-01-24 08:13:00,
2013-01-24 03:19:00,11.7,-99.9,30.08,ESE,111,0.0,0.0,-999,0.00,,,-99.99,perl,2013-01-24 08:19:00,
2013-01-24 03:24:00,11.7,-99.9,30.08,ESE,110,0.0,0.0,-999,0.00,,,-99.99,perl,2013-01-24 08:24:00,
2013-01-24 03:29:00,11.7,-99.9,30.08,ESE,111,0.0,0.0,-999,0.00,,,-99.99,perl,2013-01-24 08:29:00,
2013-01-24 03:34:00,11.5,-99.9,30.08,ESE,109,0.0,0.0,-999,0.00,,,-99.99,perl,2013-01-24 08:34:00,
2013-01-24 03:39:00,11.3,-99.9,30.08,ESE,109,0.0,0.0,-999,0.00,,,-99.99,perl,2013-01-24 08:39:00,
2013-01-24 03:44:00,11.3,-99.9,30.08,ESE,109,0.0,0.0,-999,0.00,,,-99.99,perl,2013-01-24 08:44:00,
2013-01-24 03:49:00,11.3,-99.9,30.08,ESE,112,0.0,0.0,-999,0.00,,,-99.99,perl,2013-01-24 08:49:00,
2013-01-24 03:54:00,11.3,-99.9,30.08,ESE,112,0.0,0.0,-999,0.00,,,-99.99,perl,2013-01-24 08:54:00,
2013-01-24 03:59:00,11.1,-99.9,30.11,ESE,118,0.0,0.0,-999,0.00,,,-99.99,perl,2013-01-24 08:59:00,
2013-01-24 04:04:00,11.1,-99.9,30.11,South,191,0.0,0.0,-999,0.00,,,-99.99,perl,2013-01-24 09:04:00,
2013-01-24 04:09:00,10.9,-99.9,30.11,West,274,0.0,0.0,-999,0.00,,,-99.99,perl,2013-01-24 09:09:00,
2013-01-24 04:14:00,10.9,-99.9,30.11,West,265,0.0,0.0,-999,0.00,,,-99.99,perl,2013-01-24 09:14:00,
2013-01-24 04:19:00,10.9,-99.9,30.11,West,265,0.0,0.0,-999,0.00,,,-99.99,perl,2013-01-24 09:19:00,
2013-01-24 04:24:00,10.9,-99.9,30.11,WSW,242,0.0,0.0,-999,0.00,,,-99.99,perl,2013-01-24 09:24:00,
2013-01-24 04:30:00,10.8,-99.9,30.11,SSW,213,0.0,0.0,-999,0.00,,,-99.99,perl,2013-01-24 09:30:00,
2013-01-24 04:36:00,10.6,-99.9,30.11,SW,218,0.0,0.0,-999,0.00,,,-99.99,perl,2013-01-24 09:36:00,
2013-01-24 04:42:00,10.4,-99.9,30.11,ESE,113,0.0,0.0,-999,0.00,,,-99.99,perl,2013-01-24 09:42:00,
2013-01-24 04:48:00,10.0,-99.9,30.11,ESE,113,0.0,0.0,-999,0.00,,,-99.99,perl,2013-01-24 09:48:00,
2013-01-24 04:53:00,9.9,-99.9,30.11,ESE,114,0.0,0.0,-999,0.00,,,-99.99,perl,2013-01-24 09:53:00,
2013-01-24 04:58:00,9.5,-99.9,30.11,ESE,113,0.0,0.0,-999,0.00,,,-99.99,perl,2013-01-24 09:58:00,
2013-01-24 05:04:00,9.1,-99.9,30.14,ESE,114,0.0,0.0,-999,0.00,,,-99.99,perl,2013-01-24 10:04:00,
2013-01-24 05:10:00,9.0,-99.9,30.14,ESE,113,0.0,0.0,-999,0.00,,,-99.99,perl,2013-01-24 10:10:00,
2013-01-24 05:17:00,8.6,-99.9,30.14,ESE,113,0.0,0.0,-999,0.00,,,-99.99,perl,2013-01-24 10:17:00,
2013-01-24 05:22:00,8.4,-99.9,30.14,ESE,114,0.0,0.0,-999,0.00,,,-99.99,perl,2013-01-24 10:22:00,
2013-01-24 05:27:00,8.2,-99.9,30.14,ESE,112,0.0,0.0,-999,0.00,,,-99.99,perl,2013-01-24 10:27:00,
2013-01-24 05:32:00,8.1,-99.9,30.14,ESE,113,0.0,0.0,-999,0.00,,,-99.99,perl,2013-01-24 10:32:00,
2013-01-24 05:37:00,7.9,-99.9,30.14,ESE,112,0.0,0.0,-999,0.00,,,-99.99,perl,2013-01-24 10:37:00,
2013-01-24 05:42:00,7.9,-99.9,30.14,ESE,113,0.0,0.0,-999,0.00,,,-99.99,perl,2013-01-24 10:42:00,
2013-01-24 05:48:00,8.1,-99.9,30.14,ESE,113,0.0,0.0,-999,0.00,,,-99.99,perl,2013-01-24 10:48:00,
2013-01-24 05:54:00,8.4,-99.9,30.14,ESE,113,0.0,0.0,-999,0.00,,,-99.99,perl,2013-01-24 10:54:00,
2013-01-24 06:00:00,8.6,-99.9,30.14,ESE,112,0.0,0.0,-999,0.00,,,-99.99,perl,2013-01-24 11:00:00,
2013-01-24 06:05:00,8.8,-99.9,30.14,ESE,112,0.0,0.0,-999,0.00,,,-99.99,perl,2013-01-24 11:05:00,
2013-01-24 06:11:00,8.8,-99.9,30.14,ESE,113,0.0,0.0,-999,0.00,,,-99.99,perl,2013-01-24 11:11:00,
2013-01-24 06:16:00,9.1,-99.9,30.17,ESE,123,0.0,0.0,-999,0.00,,,-99.99,perl,2013-01-24 11:16:00,
2013-01-24 06:21:00,9.1,-99.9,30.17,ESE,123,0.0,0.0,-999,0.00,,,-99.99,perl,2013-01-24 11:21:00,
2013-01-24 06:26:00,9.3,-99.9,30.17,WSW,249,0.0,0.0,-999,0.00,,,-99.99,perl,2013-01-24 11:26:00,
2013-01-24 06:31:00,9.5,-99.9,30.17,West,266,0.0,0.0,-999,0.00,,,-99.99,perl,2013-01-24 11:31:00,
2013-01-24 06:36:00,9.7,-99.9,30.17,West,267,0.0,0.0,-999,0.00,,,-99.99,perl,2013-01-24 11:36:00,
2013-01-24 06:41:00,10.0,-99.9,30.17,West,274,0.0,4.0,-999,0.00,,,-99.99,perl,2013-01-24 11:41:00,
2013-01-24 06:46:00,10.2,-99.9,30.17,West,264,0.0,0.0,-999,0.00,,,-99.99,perl,2013-01-24 11:46:00,
2013-01-24 06:51:00,10.2,-99.9,30.17,West,263,0.0,3.6,-999,0.00,,,-99.99,perl,2013-01-24 11:51:00,
2013-01-24 06:56:00,10.4,-99.9,30.17,West,263,0.0,0.0,-999,0.00,,,-99.99,perl,2013-01-24 11:56:00,
2013-01-24 07:01:00,10.4,-99.9,30.20,West,264,0.0,0.0,-999,0.00,,,-99.99,perl,2013-01-24 12:01:00,
2013-01-24 07:06:00,10.4,-99.9,30.20,WNW,293,0.0,0.0,-999,0.00,,,-99.99,perl,2013-01-24 12:06:00,
2013-01-24 07:11:00,10.6,-99.9,30.20,WNW,302,0.0,0.0,-999,0.00,,,-99.99,perl,2013-01-24 12:11:00,
2013-01-24 07:16:00,10.6,-99.9,30.20,WNW,302,0.0,0.0,-999,0.00,,,-99.99,perl,2013-01-24 12:16:00,
2013-01-24 07:21:00,10.6,-99.9,30.20,WNW,302,0.0,0.0,-999,0.00,,,-99.99,perl,2013-01-24 12:21:00,
2013-01-24 07:26:00,10.6,-99.9,30.20,WNW,303,0.0,0.0,-999,0.00,,,-99.99,perl,2013-01-24 12:26:00,
2013-01-24 07:31:00,10.8,-99.9,30.20,WNW,302,0.0,0.0,-999,0.00,,,-99.99,perl,2013-01-24 12:31:00,
2013-01-24 07:36:00,10.8,-99.9,30.20,WNW,303,0.0,0.0,-999,0.00,,,-99.99,perl,2013-01-24 12:36:00,
2013-01-24 07:41:00,10.8,-99.9,30.20,WNW,302,0.0,0.0,-999,0.00,,,-99.99,perl,2013-01-24 12:41:00,
2013-01-24 07:46:00,10.9,-99.9,30.23,WNW,302,0.0,0.0,-999,0.00,,,-99.99,perl,2013-01-24 12:46:00,
2013-01-24 07:51:00,10.9,-99.9,30.23,WNW,302,0.0,0.0,-999,0.00,,,-99.99,perl,2013-01-24 12:51:00,
2013-01-24 07:56:00,11.1,-99.9,30.23,WNW,302,0.0,0.0,-999,0.00,,,-99.99,perl,2013-01-24 12:56:00,
2013-01-24 08:01:00,11.3,-99.9,30.23,WNW,303,0.0,0.0,-999,0.00,,,-99.99,perl,2013-01-24 13:01:00,
2013-01-24 08:06:00,11.3,-99.9,30.23,WNW,297,0.0,0.0,-999,0.00,,,-99.99,perl,2013-01-24 13:06:00,
2013-01-24 08:11:00,11.3,-99.9,30.23,WNW,298,0.0,0.0,-999,0.00,,,-99.99,perl,2013-01-24 13:11:00,
2013-01-24 08:16:00,11.3,-99.9,30.26,WNW,297,0.0,0.0,-999,0.00,,,-99.99,perl,2013-01-24 13:16:00,
2013-01-24 08:22:00,11.5,-99.9,30.26,WNW,298,0.0,0.0,-999,0.00,,,-99.99,perl,2013-01-24 13:22:00,
2013-01-24 08:27:00,11.7,-99.9,30.26,WNW,298,0.0,0.0,-999,0.00,,,-99.99,perl,2013-01-24 13:27:00,
2013-01-24 08:33:00,11.7,-99.9,30.26,WNW,297,0.0,0.0,-999,0.00,,,-99.99,perl,2013-01-24 13:33:00,
2013-01-24 08:38:00,11.8,-99.9,30.26,WNW,298,0.0,0.0,-999,0.00,,,-99.99,perl,2013-01-24 13:38:00,
2013-01-24 08:44:00,12.2,-99.9,30.26,WNW,298,0.0,0.0,-999,0.00,,,-99.99,perl,2013-01-24 13:44:00,
2013-01-24 08:49:00,12.6,-99.9,30.26,NW,306,0.0,0.0,-999,0.00,,,-99.99,perl,2013-01-24 13:49:00,
2013-01-24 08:54:00,12.7,-99.9,30.26,ESE,106,0.0,0.0,-999,0.00,,,-99.99,perl,2013-01-24 13:54:00,
2013-01-24 08:59:00,12.7,-99.9,30.29,NNW,345,0.0,0.0,-999,0.00,,,-99.99,perl,2013-01-24 13:59:00,
2013-01-24 09:04:00,12.7,-99.9,30.29,North,9,0.0,0.0,-999,0.00,,,-99.99,perl,2013-01-24 14:04:00,
2013-01-24 09:09:00,12.7,-99.9,30.29,NE,35,0.0,0.0,-999,0.00,,,-99.99,perl,2013-01-24 14:09:00,
2013-01-24 09:14:00,12.7,-99.9,30.29,SW,232,0.0,0.0,-999,0.00,,,-99.99,perl,2013-01-24 14:14:00,
2013-01-24 09:19:00,12.6,-99.9,30.29,WSW,237,2.7,2.7,-999,0.00,,,-99.99,perl,2013-01-24 14:19:00,
2013-01-24 09:24:00,12.2,-99.9,30.29,NE,43,0.0,0.0,-999,0.00,,,-99.99,perl,2013-01-24 14:24:00,
2013-01-24 09:29:00,12.2,-99.9,30.29,ESE,120,3.1,6.3,-999,0.00,,,-99.99,perl,2013-01-24 14:29:00,
2013-01-24 09:34:00,11.8,-99.9,30.29,SE,126,2.7,4.0,-999,0.00,,,-99.99,perl,2013-01-24 14:34:00,
2013-01-24 09:39:00,11.8,-99.9,30.29,ESE,102,1.7,3.6,-999,0.00,,,-99.99,perl,2013-01-24 14:39:00,
2013-01-24 09:44:00,11.7,-99.9,30.32,SW,225,3.1,3.6,-999,0.00,,,-99.99,perl,2013-01-24 14:44:00,
2013-01-24 09:49:00,11.7,-99.9,30.32,SSE,148,2.5,5.4,-999,0.00,,,-99.99,perl,2013-01-24 14:49:00,
2013-01-24 09:54:00,11.7,-99.9,30.32,West,265,4.0,4.0,-999,0.00,,,-99.99,perl,2013-01-24 14:54:00,
2013-01-24 09:59:00,11.7,-99.9,30.35,South,183,2.7,4.0,-999,0.00,,,-99.99,perl,2013-01-24 14:59:00,
2013-01-24 10:05:00,11.5,-99.9,30.35,SE,129,4.0,4.0,-999,0.00,,,-99.99,perl,2013-01-24 15:05:00,
2013-01-24 10:10:00,11.7,-99.9,30.35,SSE,158,3.0,5.4,-999,0.00,,,-99.99,perl,2013-01-24 15:10:00,
2013-01-24 10:16:00,11.7,-99.9,30.35,SW,233,2.7,5.8,-999,0.00,,,-99.99,perl,2013-01-24 15:16:00,
2013-01-24 10:21:00,11.7,-99.9,30.35,SSE,158,3.2,5.8,-999,0.00,,,-99.99,perl,2013-01-24 15:21:00,
2013-01-24 10:26:00,11.3,-99.9,30.35,East,98,6.3,6.3,-999,0.00,,,-99.99,perl,2013-01-24 15:26:00,
2013-01-24 10:31:00,11.1,-99.9,30.35,SE,142,3.7,6.3,-999,0.00,,,-99.99,perl,2013-01-24 15:31:00,
2013-01-24 10:36:00,10.9,-99.9,30.35,East,95,3.1,4.0,-999,0.00,,,-99.99,perl,2013-01-24 15:36:00,
2013-01-24 10:42:00,10.9,-99.9,30.35,SE,128,0.7,3.1,-999,0.00,,,-99.99,perl,2013-01-24 15:42:00,
2013-01-24 10:47:00,11.1,-99.9,30.38,NE,52,0.0,0.0,-999,0.00,,,-99.99,perl,2013-01-24 15:47:00,
2013-01-24 10:52:00,11.8,-99.9,30.38,East,80,2.8,4.0,-999,0.00,,,-99.99,perl,2013-01-24 15:52:00,
2013-01-24 10:57:00,12.2,-99.9,30.38,East,95,4.0,4.0,-999,0.00,,,-99.99,perl,2013-01-24 15:57:00,
2013-01-24 11:02:00,12.2,-99.9,30.38,NW,326,2.7,4.0,-999,0.00,,,-99.99,perl,2013-01-24 16:02:00,
2013-01-24 11:07:00,12.4,-99.9,30.38,SW,219,0.0,5.8,-999,0.00,,,-99.99,perl,2013-01-24 16:07:00,
2013-01-24 11:12:00,12.4,-99.9,30.38,East,93,2.7,3.1,-999,0.00,,,-99.99,perl,2013-01-24 16:12:00,
2013-01-24 11:17:00,12.2,-99.9,30.38,ENE,75,2.1,2.2,-999,0.00,,,-99.99,perl,2013-01-24 16:17:00,
2013-01-24 11:22:00,12.4,-99.9,30.38,WSW,253,3.1,5.4,-999,0.00,,,-99.99,perl,2013-01-24 16:22:00,
2013-01-24 11:27:00,12.6,-99.9,30.38,North,349,0.0,0.0,-999,0.00,,,-99.99,perl,2013-01-24 16:27:00,
2013-01-24 11:32:00,12.7,-99.9,30.38,West,264,0.0,0.0,-999,0.00,,,-99.99,perl,2013-01-24 16:32:00,
2013-01-24 11:37:00,12.7,-99.9,30.38,NNW,331,0.0,0.0,-999,0.00,,,-99.99,perl,2013-01-24 16:37:00,
2013-01-24 11:42:00,12.6,-99.9,30.38,ESE,114,0.0,4.9,-999,0.00,,,-99.99,perl,2013-01-24 16:42:00,
2013-01-24 11:47:00,12.2,-99.9,30.38,NNW,329,0.0,0.0,-999,0.00,,,-99.99,perl,2013-01-24 16:47:00,
2013-01-24 11:52:00,12.2,-99.9,30.38,WNW,289,2.3,4.0,-999,0.00,,,-99.99,perl,2013-01-24 16:52:00,
2013-01-24 11:57:00,12.7,-99.9,30.38,NNW,348,0.0,0.0,-999,0.00,,,-99.99,perl,2013-01-24 16:57:00,
2013-01-24 12:02:00,12.6,-99.9,30.38,WNW,302,3.2,5.8,-999,0.00,,,-99.99,perl,2013-01-24 17:02:00,
2013-01-24 12:07:00,12.2,-99.9,30.38,NNW,334,4.9,4.9,-999,0.00,,,-99.99,perl,2013-01-24 17:07:00,
2013-01-24 12:12:00,12.6,-99.9,30.38,West,279,3.1,5.8,-999,0.00,,,-99.99,perl,2013-01-24 17:12:00,
2013-01-24 12:17:00,12.9,-99.9,30.38,NNW,339,4.9,4.9,-999,0.00,,,-99.99,perl,2013-01-24 17:17:00,
2013-01-24 12:22:00,12.6,-99.9,30.38,NNW,334,3.1,4.0,-999,0.00,,,-99.99,perl,2013-01-24 17:22:00,
2013-01-24 12:27:00,12.2,-99.9,30.38,NNW,329,3.3,5.4,-999,0.00,,,-99.99,perl,2013-01-24 17:27:00,
2013-01-24 12:33:00,12.6,-99.9,30.41,NNW,328,4.0,5.4,-999,0.00,,,-99.99,perl,2013-01-24 17:33:00,
2013-01-24 12:38:00,12.2,-99.9,30.41,NW,325,4.5,4.9,-999,0.00,,,-99.99,perl,2013-01-24 17:38:00,
2013-01-24 12:43:00,12.2,-99.9,30.41,WNW,301,4.5,4.5,-999,0.00,,,-99.99,perl,2013-01-24 17:43:00,
2013-01-24 12:48:00,12.2,-99.9,30.41,NNW,335,4.0,6.3,-999,0.00,,,-99.99,perl,2013-01-24 17:48:00,
2013-01-24 12:54:00,12.2,-99.9,30.41,WSW,250,4.0,5.8,-999,0.00,,,-99.99,perl,2013-01-24 17:54:00,
2013-01-24 12:59:00,12.0,-99.9,30.41,NNW,329,6.7,6.7,-999,0.00,,,-99.99,perl,2013-01-24 17:59:00,
2013-01-24 13:04:00,12.0,-99.9,30.41,NW,320,4.0,4.0,-999,0.00,,,-99.99,perl,2013-01-24 18:04:00,
2013-01-24 13:10:00,12.2,-99.9,30.41,WSW,255,2.2,5.4,-999,0.00,,,-99.99,perl,2013-01-24 18:10:00,
2013-01-24 13:16:00,12.0,-99.9,30.41,NW,311,3.7,6.3,-999,0.00,,,-99.99,perl,2013-01-24 18:16:00,
2013-01-24 13:21:00,12.2,-99.9,30.41,WNW,301,4.0,6.3,-999,0.00,,,-99.99,perl,2013-01-24 18:21:00,
2013-01-24 13:26:00,12.7,-99.9,30.41,WNW,285,3.3,6.3,-999,0.00,,,-99.99,perl,2013-01-24 18:26:00,
2013-01-24 13:31:00,12.7,-99.9,30.41,WSW,245,4.0,5.4,-999,0.00,,,-99.99,perl,2013-01-24 18:31:00,
2013-01-24 13:36:00,12.9,-99.9,30.41,WNW,288,4.9,7.6,-999,0.00,,,-99.99,perl,2013-01-24 18:36:00,
2013-01-24 13:41:00,13.5,-99.9,30.41,NW,322,3.6,3.6,-999,0.00,,,-99.99,perl,2013-01-24 18:41:00,
2013-01-24 13:47:00,13.5,-99.9,30.41,NW,318,3.1,5.8,-999,0.00,,,-99.99,perl,2013-01-24 18:47:00,
2013-01-24 13:52:00,13.6,-99.9,30.41,NW,306,4.0,4.0,-999,0.00,,,-99.99,perl,2013-01-24 18:52:00,
2013-01-24 13:57:00,12.7,-99.9,30.41,NW,317,4.0,6.3,-999,0.00,,,-99.99,perl,2013-01-24 18:57:00,
2013-01-24 14:02:00,12.0,-99.9,30.41,WNW,291,4.9,5.8,-999,0.00,,,-99.99,perl,2013-01-24 19:02:00,
2013-01-24 14:07:00,12.0,-99.9,30.41,WSW,257,4.5,4.5,-999,0.00,,,-99.99,perl,2013-01-24 19:07:00,
2013-01-24 14:12:00,11.8,-99.9,30.41,NNW,328,3.9,4.0,-999,0.00,,,-99.99,perl,2013-01-24 19:12:00,
2013-01-24 14:17:00,11.7,-99.9,30.41,NW,308,4.9,5.8,-999,0.00,,,-99.99,perl,2013-01-24 19:17:00,
2013-01-24 14:22:00,11.7,-99.9,30.41,WNW,300,3.7,5.8,-999,0.00,,,-99.99,perl,2013-01-24 19:22:00,
2013-01-24 14:27:00,11.7,-99.9,30.41,WNW,288,5.8,5.8,-999,0.00,,,-99.99,perl,2013-01-24 19:27:00,
2013-01-24 14:32:00,11.5,-99.9,30.41,WNW,294,5.4,5.8,-999,0.00,,,-99.99,perl,2013-01-24 19:32:00,
2013-01-24 14:37:00,11.3,-99.9,30.41,WNW,302,4.9,5.8,-999,0.00,,,-99.99,perl,2013-01-24 19:37:00,
2013-01-24 14:42:00,11.1,-99.9,30.41,WNW,289,4.5,4.5,-999,0.00,,,-99.99,perl,2013-01-24 19:42:00,
2013-01-24 14:47:00,11.3,-99.9,30.44,WNW,296,4.1,5.8,-999,0.00,,,-99.99,perl,2013-01-24 19:47:00,
2013-01-24 14:52:00,12.0,-99.9,30.44,West,267,6.7,8.7,-999,0.00,,,-99.99,perl,2013-01-24 19:52:00,
2013-01-24 14:57:00,12.6,-99.9,30.44,WNW,298,4.8,5.4,-999,0.00,,,-99.99,perl,2013-01-24 19:57:00,
2013-01-24 15:02:00,12.7,-99.9,30.44,NW,305,4.0,4.9,-999,0.00,,,-99.99,perl,2013-01-24 20:02:00,
2013-01-24 15:07:00,12.9,-99.9,30.44,WNW,299,4.0,7.6,-999,0.00,,,-99.99,perl,2013-01-24 20:07:00,
2013-01-24 15:12:00,12.2,-99.9,30.44,WNW,288,6.3,6.3,-999,0.00,,,-99.99,perl,2013-01-24 20:12:00,
2013-01-24 15:17:00,11.8,-99.9,30.44,NW,306,7.6,7.6,-999,0.00,,,-99.99,perl,2013-01-24 20:17:00,
2013-01-24 15:22:00,11.7,-99.9,30.44,WNW,296,3.7,6.7,-999,0.00,,,-99.99,perl,2013-01-24 20:22:00,
2013-01-24 15:27:00,11.3,-99.9,30.44,West,281,4.9,5.4,-999,0.00,,,-99.99,perl,2013-01-24 20:27:00,
2013-01-24 15:32:00,10.9,-99.9,30.44,NW,318,4.2,5.8,-999,0.00,,,-99.99,perl,2013-01-24 20:32:00,
2013-01-24 15:38:00,10.8,-99.9,30.44,SW,231,3.1,4.9,-999,0.00,,,-99.99,perl,2013-01-24 20:38:00,
2013-01-24 15:44:00,10.9,-99.9,30.44,NW,314,3.1,3.1,-999,0.00,,,-99.99,perl,2013-01-24 20:44:00,
2013-01-24 15:49:00,10.9,-99.9,30.44,NW,315,3.6,4.0,-999,0.00,,,-99.99,perl,2013-01-24 20:49:00,
2013-01-24 15:54:00,11.1,-99.9,30.44,NNW,328,5.4,6.3,-999,0.00,,,-99.99,perl,2013-01-24 20:54:00,
2013-01-24 15:59:00,11.1,-99.9,30.44,NW,308,4.0,6.3,-999,0.00,,,-99.99,perl,2013-01-24 20:59:00,
2013-01-24 16:04:00,11.3,-99.9,30.44,WNW,297,4.5,5.8,-999,0.00,,,-99.99,perl,2013-01-24 21:04:00,
2013-01-24 16:09:00,11.7,-99.9,30.44,West,281,4.0,12.8,-999,0.00,,,-99.99,perl,2013-01-24 21:09:00,
2013-01-24 16:15:00,11.3,-99.9,30.44,WNW,288,8.3,8.3,-999,0.00,,,-99.99,perl,2013-01-24 21:15:00,
2013-01-24 16:20:00,11.1,-99.9,30.44,West,276,3.6,10.5,-999,0.00,,,-99.99,perl,2013-01-24 21:20:00,
2013-01-24 16:25:00,11.1,-99.9,30.44,NW,304,7.0,7.6,-999,0.00,,,-99.99,perl,2013-01-24 21:25:00,
2013-01-24 16:30:00,10.9,-99.9,30.47,WNW,293,7.2,7.6,-999,0.00,,,-99.99,perl,2013-01-24 21:30:00,
2013-01-24 16:36:00,10.8,-99.9,30.47,WNW,291,5.8,8.3,-999,0.00,,,-99.99,perl,2013-01-24 21:36:00,
2013-01-24 16:41:00,10.8,-99.9,30.47,WNW,291,6.7,9.6,-999,0.00,,,-99.99,perl,2013-01-24 21:41:00,
2013-01-24 16:46:00,10.8,-99.9,30.47,NW,315,3.6,4.0,-999,0.00,,,-99.99,perl,2013-01-24 21:46:00,
2013-01-24 16:52:00,10.8,-99.9,30.47,WNW,291,4.9,4.9,-999,0.00,,,-99.99,perl,2013-01-24 21:52:00,
2013-01-24 16:57:00,10.8,-99.9,30.47,WNW,293,4.5,4.5,-999,0.00,,,-99.99,perl,2013-01-24 21:57:00,
2013-01-24 17:02:00,10.6,-99.9,30.47,WSW,247,4.5,4.9,-999,0.00,,,-99.99,perl,2013-01-24 22:02:00,
2013-01-24 17:07:00,10.4,-99.9,30.47,NW,312,5.1,5.1,-999,0.00,,,-99.99,perl,2013-01-24 22:07:00,
2013-01-24 17:12:00,10.2,-99.9,30.47,NW,321,4.9,5.4,-999,0.00,,,-99.99,perl,2013-01-24 22:12:00,
2013-01-24 17:18:00,10.2,-99.9,30.47,West,277,5.8,7.6,-999,0.00,,,-99.99,perl,2013-01-24 22:18:00,
2013-01-24 17:24:00,10.0,-99.9,30.47,WNW,300,3.5,5.4,-999,0.00,,,-99.99,perl,2013-01-24 22:24:00,
2013-01-24 17:29:00,10.0,-99.9,30.47,NW,305,3.6,4.5,-999,0.00,,,-99.99,perl,2013-01-24 22:29:00,
2013-01-24 17:34:00,9.9,-99.9,30.47,West,259,5.8,5.8,-999,0.00,,,-99.99,perl,2013-01-24 22:34:00,
2013-01-24 17:39:00,9.9,-99.9,30.47,WNW,294,4.0,4.0,-999,0.00,,,-99.99,perl,2013-01-24 22:39:00,
2013-01-24 17:44:00,9.9,-99.9,30.47,West,278,5.4,8.3,-999,0.00,,,-99.99,perl,2013-01-24 22:44:00,
2013-01-24 17:50:00,9.7,-99.9,30.47,West,277,4.5,5.4,-999,0.00,,,-99.99,perl,2013-01-24 22:50:00,
2013-01-24 17:55:00,9.5,-99.9,30.47,West,279,5.4,5.8,-999,0.00,,,-99.99,perl,2013-01-24 22:55:00,
2013-01-24 18:00:00,9.5,-99.9,30.47,WSW,253,6.3,6.3,-999,0.00,,,-99.99,perl,2013-01-24 23:00:00,
2013-01-24 18:06:00,9.5,-99.9,30.47,WSW,258,3.8,5.4,-999,0.00,,,-99.99,perl,2013-01-24 23:06:00,
2013-01-24 18:11:00,9.5,-99.9,30.47,WNW,291,5.4,5.4,-999,0.00,,,-99.99,perl,2013-01-24 23:11:00,
2013-01-24 18:16:00,9.5,-99.9,30.47,West,267,3.1,7.6,-999,0.00,,,-99.99,perl,2013-01-24 23:16:00,
2013-01-24 18:21:00,9.5,-99.9,30.47,West,266,6.3,6.3,-999,0.00,,,-99.99,perl,2013-01-24 23:21:00,
2013-01-24 18:26:00,9.3,-99.9,30.47,West,270,3.6,7.6,-999,0.00,,,-99.99,perl,2013-01-24 23:26:00,
2013-01-24 18:31:00,9.3,-99.9,30.50,West,273,3.2,5.4,-999,0.00,,,-99.99,perl,2013-01-24 23:31:00,
2013-01-24 18:36:00,9.3,-99.9,30.50,WSW,251,4.0,6.3,-999,0.00,,,-99.99,perl,2013-01-24 23:36:00,
2013-01-24 18:41:00,9.1,-99.9,30.50,West,260,4.3,4.9,-999,0.00,,,-99.99,perl,2013-01-24 23:41:00,
2013-01-24 18:46:00,9.1,-99.9,30.50,West,275,3.6,6.7,-999,0.00,,,-99.99,perl,2013-01-24 23:46:00,
2013-01-24 18:51:00,9.0,-99.9,30.50,WSW,255,6.7,6.7,-999,0.00,,,-99.99,perl,2013-01-24 23:51:00,
2013-01-24 18:56:00,9.1,-99.9,30.50,WSW,253,6.3,6.3,-999,0.00,,,-99.99,perl,2013-01-24 23:56:00,
2013-01-24 19:01:00,9.1,-99.9,30.50,West,281,4.5,4.5,-999,0.00,,,-99.99,perl,2013-01-25 00:01:00,
2013-01-24 19:06:00,9.1,-99.9,30.50,West,259,5.0,5.4,-999,0.00,,,-99.99,perl,2013-01-25 00:06:00,
2013-01-24 19:12:00,9.0,-99.9,30.50,West,272,3.6,5.4,-999,0.00,,,-99.99,perl,2013-01-25 00:12:00,
2013-01-24 19:17:00,9.0,-99.9,30.50,West,261,4.5,5.4,-999,0.00,,,-99.99,perl,2013-01-25 00:17:00,
2013-01-24 19:22:00,9.0,-99.9,30.50,WSW,256,4.9,8.1,-999,0.00,,,-99.99,perl,2013-01-25 00:22:00,
2013-01-24 19:27:00,9.0,-99.9,30.50,West,266,5.8,5.8,-999,0.00,,,-99.99,perl,2013-01-25 00:27:00,
2013-01-24 19:32:00,8.8,-99.9,30.50,WNW,282,4.0,4.0,-999,0.00,,,-99.99,perl,2013-01-25 00:32:00,
2013-01-24 19:37:00,8.8,-99.9,30.50,West,279,3.1,4.9,-999,0.00,,,-99.99,perl,2013-01-25 00:37:00,
2013-01-24 19:42:00,8.6,-99.9,30.50,WNW,283,4.0,4.0,-999,0.00,,,-99.99,perl,2013-01-25 00:42:00,
2013-01-24 19:47:00,8.8,-99.9,30.50,West,275,3.1,5.4,-999,0.00,,,-99.99,perl,2013-01-25 00:47:00,
2013-01-24 19:52:00,8.6,-99.9,30.50,West,269,4.5,5.8,-999,0.00,,,-99.99,perl,2013-01-25 00:52:00,
2013-01-24 19:57:00,8.6,-99.9,30.50,WSW,254,2.7,4.0,-999,0.00,,,-99.99,perl,2013-01-25 00:57:00,
2013-01-24 20:02:00,8.6,-99.9,30.50,West,262,4.9,6.7,-999,0.00,,,-99.99,perl,2013-01-25 01:02:00,
2013-01-24 20:07:00,8.8,-99.9,30.50,WSW,248,4.0,5.8,-999,0.00,,,-99.99,perl,2013-01-25 01:07:00,
2013-01-24 20:12:00,8.8,-99.9,30.50,WSW,246,3.5,4.0,-999,0.00,,,-99.99,perl,2013-01-25 01:12:00,
2013-01-24 20:17:00,8.8,-99.9,30.50,West,260,4.0,6.3,-999,0.00,,,-99.99,perl,2013-01-25 01:17:00,
2013-01-24 20:22:00,8.8,-99.9,30.50,West,271,3.1,4.0,-999,0.00,,,-99.99,perl,2013-01-25 01:22:00,
2013-01-24 20:27:00,8.8,-99.9,30.50,West,267,4.0,4.0,-999,0.00,,,-99.99,perl,2013-01-25 01:27:00,
2013-01-24 20:32:00,8.8,-99.9,30.47,WSW,244,3.6,5.4,-999,0.00,,,-99.99,perl,2013-01-25 01:32:00,
2013-01-24 20:37:00,8.8,-99.9,30.47,WSW,255,3.2,5.4,-999,0.00,,,-99.99,perl,2013-01-25 01:37:00,
2013-01-24 20:42:00,9.0,-99.9,30.47,WSW,249,3.6,4.9,-999,0.00,,,-99.99,perl,2013-01-25 01:42:00,
2013-01-24 20:47:00,9.0,-99.9,30.47,WSW,242,3.6,4.9,-999,0.00,,,-99.99,perl,2013-01-25 01:47:00,
2013-01-24 20:52:00,9.1,-99.9,30.47,WSW,247,3.1,3.1,-999,0.00,,,-99.99,perl,2013-01-25 01:52:00,
2013-01-24 20:57:00,9.3,-99.9,30.47,SW,231,3.1,4.0,-999,0.00,,,-99.99,perl,2013-01-25 01:57:00,
2013-01-24 21:04:00,9.3,-99.9,30.47,West,262,4.5,6.3,-999,0.00,,,-99.99,perl,2013-01-25 02:04:00,
2013-01-24 21:09:00,9.1,-99.9,30.47,WSW,248,4.9,6.3,-999,0.00,,,-99.99,perl,2013-01-25 02:09:00,
2013-01-24 21:14:00,9.1,-99.9,30.47,WSW,247,4.0,5.8,-999,0.00,,,-99.99,perl,2013-01-25 02:14:00,
2013-01-24 21:19:00,9.1,-99.9,30.47,WSW,254,3.5,4.0,-999,0.00,,,-99.99,perl,2013-01-25 02:19:00,
2013-01-24 21:24:00,9.3,-99.9,30.47,WSW,241,2.7,4.0,-999,0.00,,,-99.99,perl,2013-01-25 02:24:00,
2013-01-24 21:29:00,9.3,-99.9,30.47,WSW,246,3.5,4.0,-999,0.00,,,-99.99,perl,2013-01-25 02:29:00,
2013-01-24 21:34:00,9.3,-99.9,30.47,West,260,3.1,5.4,-999,0.00,,,-99.99,perl,2013-01-25 02:34:00,
2013-01-24 21:40:00,9.3,-99.9,30.47,WSW,248,4.4,4.9,-999,0.00,,,-99.99,perl,2013-01-25 02:40:00,
2013-01-24 21:45:00,9.5,-99.9,30.50,WSW,244,5.4,5.8,-999,0.00,,,-99.99,perl,2013-01-25 02:45:00,
2013-01-24 21:50:00,9.7,-99.9,30.50,WSW,253,3.7,5.4,-999,0.00,,,-99.99,perl,2013-01-25 02:50:00,
2013-01-24 21:55:00,9.5,-99.9,30.50,WSW,237,3.6,8.1,-999,0.00,,,-99.99,perl,2013-01-25 02:55:00,
2013-01-24 22:00:00,9.5,-99.9,30.47,WSW,245,4.9,5.4,-999,0.00,,,-99.99,perl,2013-01-25 03:00:00,
2013-01-24 22:05:00,9.5,-99.9,30.47,WSW,255,4.0,4.0,-999,0.00,,,-99.99,perl,2013-01-25 03:05:00,
2013-01-24 22:10:00,9.5,-99.9,30.47,WSW,257,4.5,8.3,-999,0.00,,,-99.99,perl,2013-01-25 03:10:00,
2013-01-24 22:15:00,9.5,-99.9,30.47,WSW,241,5.4,5.4,-999,0.00,,,-99.99,perl,2013-01-25 03:15:00,
2013-01-24 22:21:00,9.5,-99.9,30.47,WSW,256,5.4,5.4,-999,0.00,,,-99.99,perl,2013-01-25 03:21:00,
2013-01-24 22:26:00,9.7,-99.9,30.47,WSW,257,4.9,8.3,-999,0.00,,,-99.99,perl,2013-01-25 03:26:00,
2013-01-24 22:31:00,9.7,-99.9,30.50,WSW,250,4.9,5.4,-999,0.00,,,-99.99,perl,2013-01-25 03:31:00,
2013-01-24 22:36:00,9.7,-99.9,30.50,West,266,5.4,8.3,-999,0.00,,,-99.99,perl,2013-01-25 03:36:00,
2013-01-24 22:41:00,9.7,-99.9,30.50,West,259,5.8,10.5,-999,0.00,,,-99.99,perl,2013-01-25 03:41:00,
2013-01-24 22:46:00,9.9,-99.9,30.47,WSW,246,6.9,8.3,-999,0.00,,,-99.99,perl,2013-01-25 03:46:00,
2013-01-24 22:51:00,9.9,-99.9,30.47,West,262,5.4,8.1,-999,0.00,,,-99.99,perl,2013-01-25 03:51:00,
2013-01-24 22:56:00,9.9,-99.9,30.47,West,259,4.5,5.8,-999,0.00,,,-99.99,perl,2013-01-25 03:56:00,
2013-01-24 23:02:00,10.0,-99.9,30.47,WSW,246,4.9,8.1,-999,0.00,,,-99.99,perl,2013-01-25 04:02:00,
2013-01-24 23:07:00,10.0,-99.9,30.47,West,272,4.7,8.1,-999,0.00,,,-99.99,perl,2013-01-25 04:07:00,
2013-01-24 23:12:00,10.0,-99.9,30.47,WSW,255,6.3,6.3,-999,0.00,,,-99.99,perl,2013-01-25 04:12:00,
2013-01-24 23:17:00,9.9,-99.9,30.47,WSW,241,5.8,9.2,-999,0.00,,,-99.99,perl,2013-01-25 04:17:00,
2013-01-24 23:23:00,9.7,-99.9,30.47,West,261,4.9,5.8,-999,0.00,,,-99.99,perl,2013-01-25 04:23:00,
2013-01-24 23:28:00,9.7,-99.9,30.47,WSW,256,5.7,6.3,-999,0.00,,,-99.99,perl,2013-01-25 04:28:00,
2013-01-24 23:33:00,9.7,-99.9,30.47,SW,235,5.8,7.6,-999,0.00,,,-99.99,perl,2013-01-25 04:33:00,
2013-01-24 23:38:00,9.7,-99.9,30.47,West,262,4.9,5.4,-999,0.00,,,-99.99,perl,2013-01-25 04:38:00,
2013-01-24 23:43:00,9.5,-99.9,30.47,West,263,4.0,5.4,-999,0.00,,,-99.99,perl,2013-01-25 04:43:00,
2013-01-24 23:48:00,9.3,-99.9,30.50,West,277,4.9,6.3,-999,0.00,,,-99.99,perl,2013-01-25 04:48:00,
2013-01-24 23:53:00,9.3,-99.9,30.50,SW,232,4.0,4.9,-999,0.00,,,-99.99,perl,2013-01-25 04:53:00,
2013-01-24 23:58:00,9.1,-99.9,30.50,WSW,246,4.9,8.1,-999,0.00,,,-99.99,perl,2013-01-25 04:58:00,